{"data":{"norad_id":36415,"epoch":"2026-09-19T23:55:41.937024Z","epoch_age_seconds":69295,"freshness":"FRESH","line1":"1 36415U 10009C   26262.99701316 -.00000028  00000+0  44124-4 0  9992","line2":"2 36415  63.3624 112.9854 0547086  22.0019 340.3545 13.45726615812666","mean_motion":13.45726615,"eccentricity":0.0547086,"inclination_deg":63.3624,"raan_deg":112.9854,"arg_perigee_deg":22.0019,"mean_anomaly_deg":340.3545,"bstar":4.4124e-5,"rev_number":81266,"period_min":107.00538905519,"perigee_km":679.55963662477,"apogee_km":1496.4859351491,"semimajor_km":7466.1597858869,"source":"CELESTRAK","updated_at":"2026-09-20T09:00:13.748246Z"}}